Year,Month,Day,Hour,Minute,Value (Times are PST for temperature in C)
2015,03,08,00,00,5.20
2015,03,08,00,01,5.10
2015,03,08,00,02,5.10
2015,03,08,00,03,5.10
2015,03,08,00,04,5.10
2015,03,08,00,05,5.00
2015,03,08,00,06,5.00
2015,03,08,00,07,4.90
2015,03,08,00,08,4.90
2015,03,08,00,09,4.90
2015,03,08,00,10,4.90
2015,03,08,00,11,4.90
2015,03,08,00,12,4.90
2015,03,08,00,13,4.90
2015,03,08,00,14,4.90
2015,03,08,00,15,4.80
2015,03,08,00,16,4.80
2015,03,08,00,17,4.80
2015,03,08,00,18,4.80
2015,03,08,00,19,4.80
2015,03,08,00,20,4.80
2015,03,08,00,21,4.90
2015,03,08,00,22,4.80
2015,03,08,00,23,4.80
2015,03,08,00,24,4.80
2015,03,08,00,25,4.80
2015,03,08,00,26,4.80
2015,03,08,00,27,4.80
2015,03,08,00,28,4.80
2015,03,08,00,29,4.80
2015,03,08,00,30,4.70
2015,03,08,00,31,4.70
2015,03,08,00,32,4.70
2015,03,08,00,33,4.70
2015,03,08,00,34,4.70
2015,03,08,00,35,4.70
2015,03,08,00,36,4.70
2015,03,08,00,37,4.70
2015,03,08,00,38,4.70
2015,03,08,00,39,4.70
2015,03,08,00,40,4.70
2015,03,08,00,41,4.70
2015,03,08,00,42,4.70
2015,03,08,00,43,4.60
2015,03,08,00,44,4.60
2015,03,08,00,45,4.60
2015,03,08,00,46,4.60
2015,03,08,00,47,4.50
2015,03,08,00,48,4.50
2015,03,08,00,49,4.50
2015,03,08,00,50,4.60
2015,03,08,00,51,4.60
2015,03,08,00,52,4.60
2015,03,08,00,53,4.60
2015,03,08,00,54,4.60
2015,03,08,00,55,4.60
2015,03,08,00,56,4.50
2015,03,08,00,57,4.50
2015,03,08,00,58,4.50
2015,03,08,00,59,4.50
2015,03,08,01,00,4.50
2015,03,08,01,01,4.50
2015,03,08,01,02,4.50
2015,03,08,01,03,4.50
2015,03,08,01,04,4.50
2015,03,08,01,05,4.60
2015,03,08,01,06,4.60
2015,03,08,01,07,4.60
2015,03,08,01,08,4.50
2015,03,08,01,09,4.50
2015,03,08,01,10,4.50
2015,03,08,01,11,4.50
2015,03,08,01,12,4.40
2015,03,08,01,13,4.40
2015,03,08,01,14,4.40
2015,03,08,01,15,4.30
2015,03,08,01,16,4.30
2015,03,08,01,17,4.30
2015,03,08,01,18,4.30
2015,03,08,01,19,4.20
2015,03,08,01,20,4.20
2015,03,08,01,21,4.20
2015,03,08,01,22,4.20
2015,03,08,01,23,4.20
2015,03,08,01,24,4.20
2015,03,08,01,25,4.20
2015,03,08,01,26,4.20
2015,03,08,01,27,4.20
2015,03,08,01,28,4.20
2015,03,08,01,29,4.20
2015,03,08,01,30,4.20
2015,03,08,01,31,4.20
2015,03,08,01,32,4.20
2015,03,08,01,33,4.10
2015,03,08,01,34,4.10
2015,03,08,01,35,4.10
2015,03,08,01,36,4.10
2015,03,08,01,37,4.10
2015,03,08,01,38,4.10
2015,03,08,01,39,4.10
2015,03,08,01,40,4.10
2015,03,08,01,41,4.10
2015,03,08,01,42,4.10
2015,03,08,01,43,4.20
2015,03,08,01,44,4.20
2015,03,08,01,45,4.20
2015,03,08,01,46,4.20
2015,03,08,01,47,4.20
2015,03,08,01,48,4.20
2015,03,08,01,49,4.20
2015,03,08,01,50,4.10
2015,03,08,01,51,4.10
2015,03,08,01,52,4.10
2015,03,08,01,53,4.10
2015,03,08,01,54,4.10
2015,03,08,01,55,4.10
2015,03,08,01,56,4.10
2015,03,08,01,57,4.10
2015,03,08,01,58,4.10
2015,03,08,01,59,4.10
2015,03,08,03,00,4.10
2015,03,08,03,01,4.10
2015,03,08,03,02,4.10
2015,03,08,03,03,4.10
2015,03,08,03,04,4.10
2015,03,08,03,05,4.10
2015,03,08,03,06,4.10
2015,03,08,03,07,4.10
2015,03,08,03,08,4.10
2015,03,08,03,09,4.20
2015,03,08,03,10,4.20
2015,03,08,03,11,4.20
2015,03,08,03,12,4.20
2015,03,08,03,13,4.20
2015,03,08,03,14,4.20
2015,03,08,03,15,4.20
2015,03,08,03,16,4.20
2015,03,08,03,17,4.20
2015,03,08,03,18,4.20
2015,03,08,03,19,4.20
2015,03,08,03,20,4.30
2015,03,08,03,21,4.30
2015,03,08,03,22,4.30
2015,03,08,03,23,4.30
2015,03,08,03,24,4.30
2015,03,08,03,25,4.30
2015,03,08,03,26,4.30
2015,03,08,03,27,4.30
2015,03,08,03,28,4.30
2015,03,08,03,29,4.30
2015,03,08,03,30,4.30
2015,03,08,03,31,4.30
2015,03,08,03,32,4.30
2015,03,08,03,33,4.30
2015,03,08,03,34,4.30
2015,03,08,03,35,4.30
2015,03,08,03,36,4.30
2015,03,08,03,37,4.30
2015,03,08,03,38,4.30
2015,03,08,03,39,4.20
2015,03,08,03,40,4.20
2015,03,08,03,41,4.20
2015,03,08,03,42,4.20
2015,03,08,03,43,4.10
2015,03,08,03,44,4.10
2015,03,08,03,45,4.10
2015,03,08,03,46,4.10
2015,03,08,03,47,4.10
2015,03,08,03,48,4.10
2015,03,08,03,49,4.10
2015,03,08,03,50,4.10
2015,03,08,03,51,4.10
2015,03,08,03,52,4.00
2015,03,08,03,53,4.00
2015,03,08,03,54,4.00
2015,03,08,03,55,3.90
2015,03,08,03,56,3.90
2015,03,08,03,57,3.90
2015,03,08,03,58,3.90
2015,03,08,03,59,3.90
2015,03,08,04,00,3.90
2015,03,08,04,01,3.90
2015,03,08,04,02,3.90
2015,03,08,04,03,3.80
2015,03,08,04,04,3.80
2015,03,08,04,05,3.80
2015,03,08,04,06,3.80
2015,03,08,04,07,3.80
2015,03,08,04,08,3.80
2015,03,08,04,09,3.80
2015,03,08,04,10,3.80
2015,03,08,04,11,3.80
2015,03,08,04,12,3.80
2015,03,08,04,13,3.80
2015,03,08,04,14,3.80
2015,03,08,04,15,3.80
2015,03,08,04,16,3.80
2015,03,08,04,17,3.80
2015,03,08,04,18,3.80
2015,03,08,04,19,3.80
2015,03,08,04,20,3.80
2015,03,08,04,21,3.80
2015,03,08,04,22,3.70
2015,03,08,04,23,3.70
2015,03,08,04,24,3.70
2015,03,08,04,25,3.70
2015,03,08,04,26,3.70
2015,03,08,04,27,3.70
2015,03,08,04,28,3.70
2015,03,08,04,29,3.60
2015,03,08,04,30,3.60
2015,03,08,04,31,3.60
2015,03,08,04,32,3.50
2015,03,08,04,33,3.50
2015,03,08,04,34,3.50
2015,03,08,04,35,3.50
2015,03,08,04,36,3.50
2015,03,08,04,37,3.50
2015,03,08,04,38,3.50
2015,03,08,04,39,3.40
2015,03,08,04,40,3.40
2015,03,08,04,41,3.40
2015,03,08,04,42,3.40
2015,03,08,04,43,3.30
2015,03,08,04,44,3.30
2015,03,08,04,45,3.30
2015,03,08,04,46,3.30
2015,03,08,04,47,3.30
2015,03,08,04,48,3.30
2015,03,08,04,49,3.30
2015,03,08,04,50,3.40
2015,03,08,04,51,3.40
2015,03,08,04,52,3.40
2015,03,08,04,53,3.40
2015,03,08,04,54,3.40
2015,03,08,04,55,3.40
2015,03,08,04,56,3.50
2015,03,08,04,57,3.50
2015,03,08,04,58,3.40
2015,03,08,04,59,3.40
2015,03,08,05,00,3.40
2015,03,08,05,01,3.40
2015,03,08,05,02,3.40
2015,03,08,05,03,3.30
2015,03,08,05,04,3.30
2015,03,08,05,05,3.30
2015,03,08,05,06,3.30
2015,03,08,05,07,3.20
2015,03,08,05,08,3.20
2015,03,08,05,09,3.20
2015,03,08,05,10,3.20
2015,03,08,05,11,3.20
2015,03,08,05,12,3.20
2015,03,08,05,13,3.20
2015,03,08,05,14,3.20
2015,03,08,05,15,3.20
2015,03,08,05,16,3.20
2015,03,08,05,17,3.20
2015,03,08,05,18,3.20
2015,03,08,05,19,3.30
2015,03,08,05,20,3.30
2015,03,08,05,21,3.30
2015,03,08,05,22,3.20
2015,03,08,05,23,3.20
2015,03,08,05,24,3.20
2015,03,08,05,25,3.20
2015,03,08,05,26,3.20
2015,03,08,05,27,3.20
2015,03,08,05,28,3.20
2015,03,08,05,29,3.10
2015,03,08,05,30,3.10
2015,03,08,05,31,3.10
2015,03,08,05,32,3.10
2015,03,08,05,33,3.00
2015,03,08,05,34,3.00
2015,03,08,05,35,2.90
2015,03,08,05,36,2.90
2015,03,08,05,37,2.90
2015,03,08,05,38,2.90
2015,03,08,05,39,2.80
2015,03,08,05,40,2.80
2015,03,08,05,41,2.80
2015,03,08,05,42,2.90
2015,03,08,05,43,2.90
2015,03,08,05,44,2.90
2015,03,08,05,45,2.90
2015,03,08,05,46,2.90
2015,03,08,05,47,2.90
2015,03,08,05,48,2.90
2015,03,08,05,49,2.90
2015,03,08,05,50,2.90
2015,03,08,05,51,2.90
2015,03,08,05,52,2.90
2015,03,08,05,53,2.90
2015,03,08,05,54,2.90
2015,03,08,05,55,2.90
2015,03,08,05,56,2.90
2015,03,08,05,57,2.90
2015,03,08,05,58,2.80
2015,03,08,05,59,2.80
2015,03,08,06,00,2.80
2015,03,08,06,01,2.80
2015,03,08,06,02,2.80
2015,03,08,06,03,2.80
2015,03,08,06,04,2.80
2015,03,08,06,05,2.80
2015,03,08,06,06,2.70
2015,03,08,06,07,2.70
2015,03,08,06,08,2.70
2015,03,08,06,09,2.70
2015,03,08,06,10,2.70
2015,03,08,06,11,2.70
2015,03,08,06,12,2.70
2015,03,08,06,13,2.70
2015,03,08,06,14,2.70
2015,03,08,06,15,2.70
2015,03,08,06,16,2.70
2015,03,08,06,17,2.70
2015,03,08,06,18,2.70
2015,03,08,06,19,2.70
2015,03,08,06,20,2.70
2015,03,08,06,21,2.70
2015,03,08,06,22,2.70
2015,03,08,06,23,2.70
2015,03,08,06,24,2.70
2015,03,08,06,25,2.70
2015,03,08,06,26,2.70
2015,03,08,06,27,2.70
2015,03,08,06,28,2.70
2015,03,08,06,29,2.70
2015,03,08,06,30,2.70
2015,03,08,06,31,2.70
2015,03,08,06,32,2.70
2015,03,08,06,33,2.70
2015,03,08,06,34,2.70
2015,03,08,06,35,2.70
2015,03,08,06,36,2.70
2015,03,08,06,37,2.60
2015,03,08,06,38,2.60
2015,03,08,06,39,2.60
2015,03,08,06,40,2.60
2015,03,08,06,41,2.60
2015,03,08,06,42,2.60
2015,03,08,06,43,2.60
2015,03,08,06,44,2.60
2015,03,08,06,45,2.60
2015,03,08,06,46,2.60
2015,03,08,06,47,2.60
2015,03,08,06,48,2.50
2015,03,08,06,49,2.50
2015,03,08,06,50,2.50
2015,03,08,06,51,2.40
2015,03,08,06,52,2.40
2015,03,08,06,53,2.40
2015,03,08,06,54,2.40
2015,03,08,06,55,2.30
2015,03,08,06,56,2.30
2015,03,08,06,57,2.30
2015,03,08,06,58,2.30
2015,03,08,06,59,2.30
2015,03,08,07,00,2.30
2015,03,08,07,01,2.30
2015,03,08,07,02,2.30
2015,03,08,07,03,2.30
2015,03,08,07,04,2.40
2015,03,08,07,05,2.40
2015,03,08,07,06,2.40
2015,03,08,07,07,2.40
2015,03,08,07,08,2.40
2015,03,08,07,09,2.40
2015,03,08,07,10,2.40
2015,03,08,07,11,2.40
2015,03,08,07,12,2.40
2015,03,08,07,13,2.40
2015,03,08,07,14,2.40
2015,03,08,07,15,2.40
2015,03,08,07,16,2.40
2015,03,08,07,17,2.40
2015,03,08,07,18,2.40
2015,03,08,07,19,2.40
2015,03,08,07,20,2.40
2015,03,08,07,21,2.30
2015,03,08,07,22,2.40
2015,03,08,07,23,2.30
2015,03,08,07,24,2.40
2015,03,08,07,25,2.40
2015,03,08,07,26,2.40
2015,03,08,07,27,2.40
2015,03,08,07,28,2.40
2015,03,08,07,29,2.40
2015,03,08,07,30,2.40
2015,03,08,07,31,2.40
2015,03,08,07,32,2.40
2015,03,08,07,33,2.40
2015,03,08,07,34,2.40
2015,03,08,07,35,2.40
2015,03,08,07,36,2.40
2015,03,08,07,37,2.40
2015,03,08,07,38,2.40
2015,03,08,07,39,2.40
2015,03,08,07,40,2.50
2015,03,08,07,41,2.50
2015,03,08,07,42,2.60
2015,03,08,07,43,2.70
2015,03,08,07,44,2.70
2015,03,08,07,45,2.70
2015,03,08,07,46,2.80
2015,03,08,07,47,2.80
2015,03,08,07,48,2.80
2015,03,08,07,49,2.80
2015,03,08,07,50,2.80
2015,03,08,07,51,2.80
2015,03,08,07,52,2.90
2015,03,08,07,53,2.90
2015,03,08,07,54,2.80
2015,03,08,07,55,2.80
2015,03,08,07,56,2.80
2015,03,08,07,57,2.70
2015,03,08,07,58,2.70
2015,03,08,07,59,2.60
2015,03,08,08,00,2.60
2015,03,08,08,01,2.60
2015,03,08,08,02,2.60
2015,03,08,08,03,2.50
2015,03,08,08,04,2.50
2015,03,08,08,05,2.50
2015,03,08,08,06,2.50
2015,03,08,08,07,2.50
2015,03,08,08,08,2.50
2015,03,08,08,09,2.50
2015,03,08,08,10,2.50
2015,03,08,08,11,2.50
2015,03,08,08,12,2.60
2015,03,08,08,13,2.60
2015,03,08,08,14,2.60
2015,03,08,08,15,2.60
2015,03,08,08,16,2.60
2015,03,08,08,17,2.60
2015,03,08,08,18,2.70
2015,03,08,08,19,2.70
2015,03,08,08,20,2.80
2015,03,08,08,21,2.90
2015,03,08,08,22,3.00
2015,03,08,08,23,3.10
2015,03,08,08,24,3.10
2015,03,08,08,25,3.10
2015,03,08,08,26,3.20
2015,03,08,08,27,3.20
2015,03,08,08,28,3.20
2015,03,08,08,29,3.30
2015,03,08,08,30,3.40
2015,03,08,08,31,3.50
2015,03,08,08,32,3.50
2015,03,08,08,33,3.60
2015,03,08,08,34,3.80
2015,03,08,08,35,3.80
2015,03,08,08,36,3.90
2015,03,08,08,37,4.00
2015,03,08,08,38,4.10
2015,03,08,08,39,4.20
2015,03,08,08,40,4.30
2015,03,08,08,41,4.40
2015,03,08,08,42,4.50
2015,03,08,08,43,4.60
2015,03,08,08,44,4.70
2015,03,08,08,45,4.70
2015,03,08,08,46,4.80
2015,03,08,08,47,4.90
2015,03,08,08,48,5.00
2015,03,08,08,49,5.10
2015,03,08,08,50,5.20
2015,03,08,08,51,5.30
2015,03,08,08,52,5.40
2015,03,08,08,53,5.50
2015,03,08,08,54,5.60
2015,03,08,08,55,5.70
2015,03,08,08,56,5.80
2015,03,08,08,57,5.90
2015,03,08,08,58,6.00
2015,03,08,08,59,6.10
2015,03,08,09,00,6.20
2015,03,08,09,01,6.30
2015,03,08,09,02,6.40
2015,03,08,09,03,6.50
2015,03,08,09,04,6.70
2015,03,08,09,05,6.80
2015,03,08,09,06,6.80
2015,03,08,09,07,6.90
2015,03,08,09,08,7.00
2015,03,08,09,09,7.10
2015,03,08,09,10,7.20
2015,03,08,09,11,7.20
2015,03,08,09,12,7.30
2015,03,08,09,13,7.50
2015,03,08,09,14,7.60
2015,03,08,09,15,7.70
2015,03,08,09,16,7.80
2015,03,08,09,17,7.90
2015,03,08,09,18,8.00
2015,03,08,09,19,8.10
2015,03,08,09,20,8.10
2015,03,08,09,21,8.20
2015,03,08,09,22,8.30
2015,03,08,09,23,8.30
2015,03,08,09,24,8.40
2015,03,08,09,25,8.50
2015,03,08,09,26,8.50
2015,03,08,09,27,8.60
2015,03,08,09,28,8.70
2015,03,08,09,29,8.70
2015,03,08,09,30,8.80
2015,03,08,09,31,8.80
2015,03,08,09,32,8.80
2015,03,08,09,33,8.90
2015,03,08,09,34,8.90
2015,03,08,09,35,8.90
2015,03,08,09,36,8.90
2015,03,08,09,37,9.00
2015,03,08,09,38,9.00
2015,03,08,09,39,9.10
2015,03,08,09,40,9.10
2015,03,08,09,41,9.10
2015,03,08,09,42,9.20
2015,03,08,09,43,9.20
2015,03,08,09,44,9.20
2015,03,08,09,45,9.20
2015,03,08,09,46,9.30
2015,03,08,09,47,9.30
2015,03,08,09,48,9.30
2015,03,08,09,49,9.30
2015,03,08,09,50,9.30
2015,03,08,09,51,9.30
2015,03,08,09,52,9.30
2015,03,08,09,53,9.30
2015,03,08,09,54,9.30
2015,03,08,09,55,9.30
2015,03,08,09,56,9.30
2015,03,08,09,57,9.20
2015,03,08,09,58,9.20
2015,03,08,09,59,9.20
2015,03,08,10,00,9.20
2015,03,08,10,01,9.10
2015,03,08,10,02,9.10
2015,03,08,10,03,9.10
2015,03,08,10,04,9.10
2015,03,08,10,05,9.10
2015,03,08,10,06,9.00
2015,03,08,10,07,9.00
2015,03,08,10,08,8.90
2015,03,08,10,09,8.90
2015,03,08,10,10,8.90
2015,03,08,10,11,8.90
2015,03,08,10,12,8.90
2015,03,08,10,13,8.80
2015,03,08,10,14,8.80
2015,03,08,10,15,8.80
2015,03,08,10,16,8.70
2015,03,08,10,17,8.70
2015,03,08,10,18,8.70
2015,03,08,10,19,8.70
2015,03,08,10,20,8.60
2015,03,08,10,21,8.60
2015,03,08,10,22,8.60
2015,03,08,10,23,8.60
2015,03,08,10,24,8.60
2015,03,08,10,25,8.60
2015,03,08,10,26,8.60
2015,03,08,10,27,8.70
2015,03,08,10,28,8.70
2015,03,08,10,29,8.70
2015,03,08,10,30,8.80
2015,03,08,10,31,8.80
2015,03,08,10,32,8.80
2015,03,08,10,33,8.80
2015,03,08,10,34,8.80
2015,03,08,10,35,8.80
2015,03,08,10,36,8.80
2015,03,08,10,37,8.80
2015,03,08,10,38,8.80
2015,03,08,10,39,8.70
2015,03,08,10,40,8.70
2015,03,08,10,41,8.70
2015,03,08,10,42,8.70
2015,03,08,10,43,8.70
2015,03,08,10,44,8.70
2015,03,08,10,45,8.70
2015,03,08,10,46,8.70
2015,03,08,10,47,8.70
2015,03,08,10,48,8.70
2015,03,08,10,49,8.70
2015,03,08,10,50,8.70
2015,03,08,10,51,8.70
2015,03,08,10,52,8.80
2015,03,08,10,53,8.80
2015,03,08,10,54,8.80
2015,03,08,10,55,8.80
2015,03,08,10,56,8.90
2015,03,08,10,57,8.90
2015,03,08,10,58,9.00
2015,03,08,10,59,9.00
2015,03,08,11,00,9.00
2015,03,08,11,01,9.00
2015,03,08,11,02,9.00
2015,03,08,11,03,8.90
2015,03,08,11,04,8.90
2015,03,08,11,05,8.90
2015,03,08,11,06,8.90
2015,03,08,11,07,8.90
2015,03,08,11,08,9.00
2015,03,08,11,09,9.00
2015,03,08,11,10,9.10
2015,03,08,11,11,9.20
2015,03,08,11,12,9.30
2015,03,08,11,13,9.40
2015,03,08,11,14,9.40
2015,03,08,11,15,9.50
2015,03,08,11,16,9.60
2015,03,08,11,17,9.60
2015,03,08,11,18,9.70
2015,03,08,11,19,9.70
2015,03,08,11,20,9.80
2015,03,08,11,21,9.80
2015,03,08,11,22,9.80
2015,03,08,11,23,9.80
2015,03,08,11,24,9.80
2015,03,08,11,25,9.90
2015,03,08,11,26,9.90
2015,03,08,11,27,9.90
2015,03,08,11,28,9.90
2015,03,08,11,29,10.00
2015,03,08,11,30,10.00
2015,03,08,11,31,10.00
2015,03,08,11,32,10.00
2015,03,08,11,33,10.00
2015,03,08,11,34,10.10
2015,03,08,11,35,10.10
2015,03,08,11,36,10.10
2015,03,08,11,37,10.10
2015,03,08,11,38,10.10
2015,03,08,11,39,10.10
2015,03,08,11,40,10.10
2015,03,08,11,41,10.10
2015,03,08,11,42,10.00
2015,03,08,11,43,9.90
2015,03,08,11,44,9.90
2015,03,08,11,45,9.80
2015,03,08,11,46,9.80
2015,03,08,11,47,9.80
2015,03,08,11,48,9.80
2015,03,08,11,49,9.80
2015,03,08,11,50,9.80
2015,03,08,11,51,9.80
2015,03,08,11,52,9.70
2015,03,08,11,53,9.70
2015,03,08,11,54,9.70
2015,03,08,11,55,9.70
2015,03,08,11,56,9.80
2015,03,08,11,57,9.80
2015,03,08,11,58,9.80
2015,03,08,11,59,9.90
2015,03,08,12,00,9.90
2015,03,08,12,01,9.90
2015,03,08,12,02,9.90
2015,03,08,12,03,10.00
2015,03,08,12,04,10.00
2015,03,08,12,05,10.10
2015,03,08,12,06,10.10
2015,03,08,12,07,10.20
2015,03,08,12,08,10.20
2015,03,08,12,09,10.20
2015,03,08,12,10,10.20
2015,03,08,12,11,10.10
2015,03,08,12,12,10.10
2015,03,08,12,13,10.10
2015,03,08,12,14,10.10
2015,03,08,12,15,10.20
2015,03,08,12,16,10.20
2015,03,08,12,17,10.20
2015,03,08,12,18,10.20
2015,03,08,12,19,10.20
2015,03,08,12,20,10.20
2015,03,08,12,21,10.20
2015,03,08,12,22,10.10
2015,03,08,12,23,10.10
2015,03,08,12,24,10.10
2015,03,08,12,25,10.10
2015,03,08,12,26,10.10
2015,03,08,12,27,10.10
2015,03,08,12,28,10.10
2015,03,08,12,29,10.10
2015,03,08,12,30,10.20
2015,03,08,12,31,10.30
2015,03,08,12,32,10.30
2015,03,08,12,33,10.40
2015,03,08,12,34,10.40
2015,03,08,12,35,10.50
2015,03,08,12,36,10.50
2015,03,08,12,37,10.50
2015,03,08,12,38,10.60
2015,03,08,12,39,10.70
2015,03,08,12,40,10.70
2015,03,08,12,41,10.80
2015,03,08,12,42,10.80
2015,03,08,12,43,10.80
2015,03,08,12,44,10.90
2015,03,08,12,45,10.90
2015,03,08,12,46,11.00
2015,03,08,12,47,11.10
2015,03,08,12,48,11.10
2015,03,08,12,49,11.20
2015,03,08,12,50,11.20
2015,03,08,12,51,11.30
2015,03,08,12,52,11.30
2015,03,08,12,53,11.40
2015,03,08,12,54,11.40
2015,03,08,12,55,11.50
2015,03,08,12,56,11.50
2015,03,08,12,57,11.50
2015,03,08,12,58,11.50
2015,03,08,12,59,11.50
2015,03,08,13,00,11.40
2015,03,08,13,01,11.40
2015,03,08,13,02,11.40
2015,03,08,13,03,11.50
2015,03,08,13,04,11.50
2015,03,08,13,05,11.50
2015,03,08,13,06,11.60
2015,03,08,13,07,11.60
2015,03,08,13,08,11.60
2015,03,08,13,09,11.70
2015,03,08,13,10,11.70
2015,03,08,13,11,11.70
2015,03,08,13,12,11.70
2015,03,08,13,13,11.70
2015,03,08,13,14,11.70
2015,03,08,13,15,11.70
2015,03,08,13,16,11.70
2015,03,08,13,17,11.70
2015,03,08,13,18,11.80
2015,03,08,13,19,11.80
2015,03,08,13,20,11.80
2015,03,08,13,21,11.80
2015,03,08,13,22,11.90
2015,03,08,13,23,12.00
2015,03,08,13,24,12.10
2015,03,08,13,25,12.10
2015,03,08,13,26,12.20
2015,03,08,13,27,12.30
2015,03,08,13,28,12.30
2015,03,08,13,29,12.30
2015,03,08,13,30,12.30
2015,03,08,13,31,12.30
2015,03,08,13,32,12.30
2015,03,08,13,33,12.30
2015,03,08,13,34,12.40
2015,03,08,13,35,12.40
2015,03,08,13,36,12.40
2015,03,08,13,37,12.40
2015,03,08,13,38,12.40
2015,03,08,13,39,12.50
2015,03,08,13,40,12.50
2015,03,08,13,41,12.60
2015,03,08,13,42,12.70
2015,03,08,13,43,12.70
2015,03,08,13,44,12.70
2015,03,08,13,45,12.70
2015,03,08,13,46,12.70
2015,03,08,13,47,12.80
2015,03,08,13,48,12.80
2015,03,08,13,49,12.80
2015,03,08,13,50,12.90
2015,03,08,13,51,12.90
2015,03,08,13,52,12.90
2015,03,08,13,53,12.90
2015,03,08,13,54,12.90
2015,03,08,13,55,12.90
2015,03,08,13,56,12.80
2015,03,08,13,57,12.80
2015,03,08,13,58,12.80
2015,03,08,13,59,12.80
2015,03,08,14,00,12.80
2015,03,08,14,01,12.80
2015,03,08,14,02,12.80
2015,03,08,14,03,12.80
2015,03,08,14,04,12.70
2015,03,08,14,05,12.70
2015,03,08,14,06,12.70
2015,03,08,14,07,12.70
2015,03,08,14,08,12.70
2015,03,08,14,09,12.80
2015,03,08,14,10,12.80
2015,03,08,14,11,12.80
2015,03,08,14,12,12.90
2015,03,08,14,13,12.90
2015,03,08,14,14,12.90
2015,03,08,14,15,13.00
2015,03,08,14,16,13.10
2015,03,08,14,17,13.20
2015,03,08,14,18,13.20
2015,03,08,14,19,13.20
2015,03,08,14,20,13.20
2015,03,08,14,21,13.10
2015,03,08,14,22,13.00
2015,03,08,14,23,12.90
2015,03,08,14,24,12.90
2015,03,08,14,25,13.00
2015,03,08,14,26,12.90
2015,03,08,14,27,12.90
2015,03,08,14,28,13.00
2015,03,08,14,29,13.10
2015,03,08,14,30,13.10
2015,03,08,14,31,13.20
2015,03,08,14,32,13.20
2015,03,08,14,33,13.30
2015,03,08,14,34,13.30
2015,03,08,14,35,13.40
2015,03,08,14,36,13.40
2015,03,08,14,37,13.40
2015,03,08,14,38,13.40
2015,03,08,14,39,13.30
2015,03,08,14,40,13.30
2015,03,08,14,41,13.40
2015,03,08,14,42,13.40
2015,03,08,14,43,13.40
2015,03,08,14,44,13.50
2015,03,08,14,45,13.50
2015,03,08,14,46,13.50
2015,03,08,14,47,13.50
2015,03,08,14,48,13.50
2015,03,08,14,49,13.40
2015,03,08,14,50,13.40
2015,03,08,14,51,13.40
2015,03,08,14,52,13.30
2015,03,08,14,53,13.30
2015,03,08,14,54,13.30
2015,03,08,14,55,13.30
2015,03,08,14,56,13.30
2015,03,08,14,57,13.30
2015,03,08,14,58,13.30
2015,03,08,14,59,13.30
2015,03,08,15,00,13.30
2015,03,08,15,01,13.40
2015,03,08,15,02,13.40
2015,03,08,15,03,13.40
2015,03,08,15,04,13.40
2015,03,08,15,05,13.40
2015,03,08,15,06,13.40
2015,03,08,15,07,13.50
2015,03,08,15,08,13.50
2015,03,08,15,09,13.60
2015,03,08,15,10,13.60
2015,03,08,15,11,13.60
2015,03,08,15,12,13.50
2015,03,08,15,13,13.40
2015,03,08,15,14,13.40
2015,03,08,15,15,13.30
2015,03,08,15,16,13.30
2015,03,08,15,17,13.30
2015,03,08,15,18,13.30
2015,03,08,15,19,13.30
2015,03,08,15,20,13.20
2015,03,08,15,21,13.20
2015,03,08,15,22,13.30
2015,03,08,15,23,13.30
2015,03,08,15,24,13.40
2015,03,08,15,25,13.40
2015,03,08,15,26,13.50
2015,03,08,15,27,13.60
2015,03,08,15,28,13.70
2015,03,08,15,29,13.70
2015,03,08,15,30,13.70
2015,03,08,15,31,13.70
2015,03,08,15,32,13.70
2015,03,08,15,33,13.70
2015,03,08,15,34,13.70
2015,03,08,15,35,13.70
2015,03,08,15,36,13.70
2015,03,08,15,37,13.60
2015,03,08,15,38,13.60
2015,03,08,15,39,13.60
2015,03,08,15,40,13.60
2015,03,08,15,41,13.60
2015,03,08,15,42,13.60
2015,03,08,15,43,13.70
2015,03,08,15,44,13.70
2015,03,08,15,45,13.80
2015,03,08,15,46,13.80
2015,03,08,15,47,13.90
2015,03,08,15,48,13.90
2015,03,08,15,49,13.90
2015,03,08,15,50,13.90
2015,03,08,15,51,13.90
2015,03,08,15,52,13.90
2015,03,08,15,53,13.80
2015,03,08,15,54,13.80
2015,03,08,15,55,13.80
2015,03,08,15,56,13.80
2015,03,08,15,57,13.70
2015,03,08,15,58,13.60
2015,03,08,15,59,13.60
2015,03,08,16,00,13.60
2015,03,08,16,01,13.60
2015,03,08,16,02,13.60
2015,03,08,16,03,13.50
2015,03,08,16,04,13.50
2015,03,08,16,05,13.40
2015,03,08,16,06,13.40
2015,03,08,16,07,13.50
2015,03,08,16,08,13.50
2015,03,08,16,09,13.50
2015,03,08,16,10,13.60
2015,03,08,16,11,13.60
2015,03,08,16,12,13.70
2015,03,08,16,13,13.70
2015,03,08,16,14,13.70
2015,03,08,16,15,13.80
2015,03,08,16,16,13.80
2015,03,08,16,17,13.80
2015,03,08,16,18,13.80
2015,03,08,16,19,13.70
2015,03,08,16,20,13.70
2015,03,08,16,21,13.70
2015,03,08,16,22,13.60
2015,03,08,16,23,13.50
2015,03,08,16,24,13.50
2015,03,08,16,25,13.40
2015,03,08,16,26,13.40
2015,03,08,16,27,13.40
2015,03,08,16,28,13.40
2015,03,08,16,29,13.40
2015,03,08,16,30,13.40
2015,03,08,16,31,13.40
2015,03,08,16,32,13.40
2015,03,08,16,33,13.40
2015,03,08,16,34,13.40
2015,03,08,16,35,13.40
2015,03,08,16,36,13.40
2015,03,08,16,37,13.40
2015,03,08,16,38,13.40
2015,03,08,16,39,13.40
2015,03,08,16,40,13.50
2015,03,08,16,41,13.50
2015,03,08,16,42,13.60
2015,03,08,16,43,13.70
2015,03,08,16,44,13.70
2015,03,08,16,45,13.80
2015,03,08,16,46,13.90
2015,03,08,16,47,13.90
2015,03,08,16,48,13.90
2015,03,08,16,49,13.80
2015,03,08,16,50,13.80
2015,03,08,16,51,13.80
2015,03,08,16,52,13.80
2015,03,08,16,53,13.90
2015,03,08,16,54,13.90
2015,03,08,16,55,13.90
2015,03,08,16,56,13.90
2015,03,08,16,57,13.90
2015,03,08,16,58,13.90
2015,03,08,16,59,13.90
2015,03,08,17,00,13.90
2015,03,08,17,01,13.90
2015,03,08,17,02,13.90
2015,03,08,17,03,13.90
2015,03,08,17,04,13.90
2015,03,08,17,05,13.80
2015,03,08,17,06,13.90
2015,03,08,17,07,13.90
2015,03,08,17,08,13.80
2015,03,08,17,09,13.80
2015,03,08,17,10,13.70
2015,03,08,17,11,13.60
2015,03,08,17,12,13.50
2015,03,08,17,13,13.50
2015,03,08,17,14,13.40
2015,03,08,17,15,13.40
2015,03,08,17,16,13.40
2015,03,08,17,17,13.40
2015,03,08,17,18,13.40
2015,03,08,17,19,13.40
2015,03,08,17,20,13.40
2015,03,08,17,21,13.30
2015,03,08,17,22,13.30
2015,03,08,17,23,13.30
2015,03,08,17,24,13.30
2015,03,08,17,25,13.30
2015,03,08,17,26,13.20
2015,03,08,17,27,13.20
2015,03,08,17,28,13.20
2015,03,08,17,29,13.10
2015,03,08,17,30,13.10
2015,03,08,17,31,13.00
2015,03,08,17,32,13.00
2015,03,08,17,33,12.90
2015,03,08,17,34,12.90
2015,03,08,17,35,12.80
2015,03,08,17,36,12.80
2015,03,08,17,37,12.70
2015,03,08,17,38,12.70
2015,03,08,17,39,12.70
2015,03,08,17,40,12.60
2015,03,08,17,41,12.60
2015,03,08,17,42,12.50
2015,03,08,17,43,12.50
2015,03,08,17,44,12.50
2015,03,08,17,45,12.40
2015,03,08,17,46,12.40
2015,03,08,17,47,12.40
2015,03,08,17,48,12.30
2015,03,08,17,49,12.30
2015,03,08,17,50,12.30
2015,03,08,17,51,12.30
2015,03,08,17,52,12.30
2015,03,08,17,53,12.20
2015,03,08,17,54,12.20
2015,03,08,17,55,12.10
2015,03,08,17,56,12.10
2015,03,08,17,57,12.10
2015,03,08,17,58,12.10
2015,03,08,17,59,12.10
2015,03,08,18,00,12.10
2015,03,08,18,01,12.10
2015,03,08,18,02,12.10
2015,03,08,18,03,12.10
2015,03,08,18,04,12.10
2015,03,08,18,05,12.10
2015,03,08,18,06,12.10
2015,03,08,18,07,12.00
2015,03,08,18,08,12.10
2015,03,08,18,09,12.00
2015,03,08,18,10,12.00
2015,03,08,18,11,12.00
2015,03,08,18,12,12.00
2015,03,08,18,13,11.90
2015,03,08,18,14,12.00
2015,03,08,18,15,11.90
2015,03,08,18,16,11.90
2015,03,08,18,17,11.90
2015,03,08,18,18,11.90
2015,03,08,18,19,11.90
2015,03,08,18,20,11.90
2015,03,08,18,21,11.90
2015,03,08,18,22,11.90
2015,03,08,18,23,11.90
2015,03,08,18,24,11.80
2015,03,08,18,25,11.80
2015,03,08,18,26,11.80
2015,03,08,18,27,11.80
2015,03,08,18,28,11.80
2015,03,08,18,29,11.80
2015,03,08,18,30,11.70
2015,03,08,18,31,11.70
2015,03,08,18,32,11.70
2015,03,08,18,33,11.70
2015,03,08,18,34,11.70
2015,03,08,18,35,11.70
2015,03,08,18,36,11.70
2015,03,08,18,37,11.70
2015,03,08,18,38,11.70
2015,03,08,18,39,11.70
2015,03,08,18,40,11.70
2015,03,08,18,41,11.60
2015,03,08,18,42,11.60
2015,03,08,18,43,11.60
2015,03,08,18,44,11.60
2015,03,08,18,45,11.60
2015,03,08,18,46,11.60
2015,03,08,18,47,11.60